Weather History for Tehachapi, CA

Change the Weather History Date:

Friday, February 28, 2014

  Actual Average Record
Temperature  
Mean Temperature 46 °F -  
Max Temperature 53 °F 57 °F 59 °F (2013)
Min Temperature 39 °F 34 °F 23 °F (2013)
Degree Days  
Heating Degree Days 19    
Moisture  
Dew Point 39 °F    
Average Humidity 81    
Maximum Humidity 100    
Minimum Humidity 37    
Precipitation  
Precipitation 0.97 in - - ()
Sea Level Pressure  
Sea Level Pressure 29.66 in    
Wind  
Wind Speed 14 mph (ESE)    
Max Wind Speed 28 mph    
Max Gust Speed 43 mph    
Visibility 6 miles    
Events Rain    
Averages and records for this station are not official NWS values.
T = Trace of Precipitation, MM = Missing Value Source: NWS Daily Summary

Daily Weather History Graph

Daily Weather History Graph

Search for Another Location

Airport:

Trip Planner

Search our weather history database for the weather conditions in past years. The results will help you decide how hot, cold, wet, or windy it might be!

Date:

Astronomy

Feb. 28, 2014 Rise Set
Actual Time 6:24 AM PST 5:48 PM PST
Civil Twilight 5:58 AM PST 6:14 PM PST
Nautical Twilight 5:29 AM PST 6:43 PM PST
Astronomical Twilight 5:00 AM PST 7:12 PM PST
Moon 5:42 AM PST (2/28) 5:30 PM PST (2/28)
Length of Visible Light 12h 15m
Length of Day
11h 24m
Waning Crescent, 0% of the Moon is Illuminated
Feb 28
Waning Crescent
Mar 1
New
Mar 8
First Quarter
Mar 16
Full
Mar 23
Last Quarter

Hourly Weather History & Observations

Time (PST) Temp. Windchill Dew Point Humidity Pressure Visibility Wind Dir Wind Speed Gust Speed Precip Events Conditions
12:15 AM 50.0 °F - 24.8 °F 37% 29.82 in 10.0 mi ESE 21.9 mph 26.5 mph N/A   Overcast
12:35 AM 50.0 °F - 24.8 °F 37% 29.81 in 10.0 mi ESE 11.5 mph 23.0 mph N/A   Overcast
12:55 AM 48.2 °F - 28.4 °F 46% 29.80 in 10.0 mi East 15.0 mph 31.1 mph N/A   Overcast
1:15 AM 50.0 °F - 35.6 °F 58% 29.79 in 10.0 mi East 18.4 mph 24.2 mph N/A   Overcast
1:35 AM 50.0 °F - 37.4 °F 62% 29.78 in 10.0 mi East 16.1 mph 24.2 mph N/A   Overcast
1:55 AM 50.0 °F - 39.2 °F 66% 29.76 in 9.0 mi East 20.7 mph 24.2 mph N/A   Overcast
2:15 AM 46.4 °F 40.4 °F 41.0 °F 81% 29.75 in 4.0 mi East 13.8 mph 24.2 mph N/A Rain Light Rain
2:35 AM 44.6 °F 38.4 °F 41.0 °F 87% 29.75 in 5.0 mi East 12.7 mph 23.0 mph N/A Rain Light Rain
2:55 AM 44.6 °F 36.6 °F 42.8 °F 93% 29.72 in 3.0 mi East 19.6 mph 23.0 mph 0.02 in Rain Light Rain
3:15 AM 46.4 °F 39.2 °F 42.8 °F 87% 29.69 in 4.0 mi East 18.4 mph 29.9 mph 0.01 in Rain Light Rain
3:35 AM 46.4 °F 40.7 °F 42.8 °F 87% 29.71 in 4.0 mi East 12.7 mph 17.3 mph 0.04 in Rain Light Rain
3:55 AM 44.6 °F 38.4 °F 42.8 °F 93% 29.70 in 2.5 mi ESE 12.7 mph - 0.05 in Rain Light Rain
4:15 AM 44.6 °F 36.6 °F 42.8 °F 93% 29.69 in 1.0 mi SE 19.6 mph - 0.06 in Rain Rain
4:35 AM 42.8 °F 34.5 °F 41.0 °F 93% 29.70 in 1.5 mi SE 18.4 mph - 0.12 in Rain Light Rain
4:55 AM 42.8 °F 35.8 °F 42.8 °F 100% 29.69 in 1.0 mi SE 13.8 mph - 0.24 in Rain Heavy Rain
5:15 AM 41.0 °F 33.1 °F 41.0 °F 100% 29.67 in 1.2 mi SE 15.0 mph 20.7 mph 0.04 in Rain Rain
5:35 AM 42.8 °F 36.6 °F 41.0 °F 93% 29.68 in 2.0 mi SE 11.5 mph - 0.08 in Rain Light Rain
5:55 AM 42.8 °F 33.8 °F 41.0 °F 93% 29.66 in 2.5 mi SE 21.9 mph 28.8 mph 0.09 in Rain Light Rain
6:15 AM 41.0 °F 31.6 °F 41.0 °F 100% 29.67 in 2.5 mi SE 20.7 mph 25.3 mph N/A Rain Light Rain
6:35 AM 41.0 °F 32.2 °F 39.2 °F 93% 29.66 in 3.0 mi SE 18.4 mph 28.8 mph N/A Rain Light Rain
6:55 AM 41.0 °F 32.5 °F 41.0 °F 100% 29.66 in 1.5 mi SE 17.3 mph - 0.01 in Rain Light Rain
7:15 AM 41.0 °F 33.1 °F 41.0 °F 100% 29.67 in 1.0 mi ESE 15.0 mph - 0.03 in Rain Light Rain
7:35 AM 42.8 °F 37.0 °F 42.8 °F 100% 29.68 in 0.8 mi SE 10.4 mph - 0.06 in Rain Light Rain
7:55 AM 44.6 °F 40.7 °F 42.8 °F 93% 29.67 in 1.8 mi East 6.9 mph - 0.08 in Rain Light Rain
8:15 AM 44.6 °F 39.7 °F 42.8 °F 93% 29.70 in 3.0 mi East 9.2 mph - N/A Rain Light Rain
8:35 AM 44.6 °F 40.2 °F 44.6 °F 100% 29.69 in 1.8 mi ESE 8.1 mph - 0.04 in Rain Light Rain
8:55 AM 46.4 °F 41.1 °F 44.6 °F 93% 29.66 in 4.0 mi ESE 11.5 mph - 0.04 in Rain Light Rain
9:15 AM 46.4 °F 41.1 °F 44.6 °F 93% 29.67 in 2.0 mi East 11.5 mph 23.0 mph N/A Rain Light Rain
9:35 AM 46.4 °F 41.1 °F 44.6 °F 93% 29.66 in 1.8 mi East 11.5 mph - 0.02 in Rain Light Rain
9:55 AM 46.4 °F 42.4 °F 44.6 °F 93% 29.63 in 3.0 mi East 8.1 mph 19.6 mph 0.02 in Rain Light Rain
10:15 AM 48.2 °F - 41.0 °F 76% 29.69 in 3.0 mi SSE 6.9 mph - N/A Rain Light Rain
10:35 AM 46.4 °F 39.5 °F 41.0 °F 81% 29.68 in 1.5 mi SSE 17.3 mph 21.9 mph 0.06 in Rain Light Rain
10:55 AM 48.2 °F - 42.8 °F 82% 29.65 in 5.0 mi SSW 16.1 mph 23.0 mph 0.06 in Rain Light Rain
11:15 AM 51.8 °F - 44.6 °F 76% 29.64 in 10.0 mi SSE 16.1 mph 21.9 mph N/A   Partly Cloudy
11:35 AM 53.6 °F - 41.0 °F 62% 29.64 in 8.0 mi South 17.3 mph 33.4 mph N/A   Clear
11:55 AM 51.8 °F - 44.6 °F 76% 29.62 in 5.0 mi SSE 24.2 mph 36.8 mph N/A   Haze
12:15 PM 53.6 °F - 41.0 °F 62% 29.60 in 8.0 mi South 21.9 mph 38.0 mph N/A   Clear
12:35 PM 51.8 °F - 42.8 °F 71% 29.57 in 7.0 mi SSE 27.6 mph 39.1 mph N/A   Clear
12:55 PM 50.0 °F - 42.8 °F 76% 29.56 in 4.0 mi SSE 27.6 mph 42.6 mph N/A   Haze
1:15 PM 48.2 °F - 42.8 °F 82% 29.60 in 3.0 mi SSE 19.6 mph 38.0 mph N/A Rain Light Rain
1:35 PM 46.4 °F 39.2 °F 42.8 °F 87% 29.59 in 1.2 mi SSE 18.4 mph 27.6 mph 0.01 in Rain Light Rain
1:55 PM 48.2 °F - 42.8 °F 82% 29.59 in 1.0 mi SSE 16.1 mph 26.5 mph 0.02 in Rain Light Rain
2:15 PM 46.4 °F 40.7 °F 41.0 °F 81% 29.61 in 1.2 mi South 12.7 mph 31.1 mph 0.02 in Rain Light Rain
2:35 PM 46.4 °F 39.2 °F 42.8 °F 87% 29.61 in 1.2 mi West 18.4 mph 21.9 mph 0.13 in Rain Heavy Rain
2:55 PM 44.6 °F 39.2 °F 42.8 °F 93% 29.56 in 1.8 mi North 10.4 mph - 0.23 in Rain Light Rain
3:15 PM 46.4 °F - 41.0 °F 81% 29.59 in 7.0 mi Calm Calm - N/A   Mostly Cloudy
3:35 PM 46.4 °F 41.5 °F 37.4 °F 71% 29.60 in 5.0 mi WSW 10.4 mph 21.9 mph N/A Rain Light Rain
3:55 PM 44.6 °F 38.1 °F 39.2 °F 81% 29.59 in 2.5 mi West 13.8 mph 21.9 mph 0.05 in Rain Rain
4:15 PM 42.8 °F 37.0 °F 39.2 °F 87% 29.60 in 2.0 mi West 10.4 mph 18.4 mph 0.03 in Rain Light Rain
4:35 PM 42.8 °F 38.0 °F 37.4 °F 81% 29.57 in 5.0 mi NW 8.1 mph 17.3 mph 0.06 in Rain Light Rain
4:55 PM 44.6 °F 40.7 °F 37.4 °F 76% 29.59 in 10.0 mi SSE 6.9 mph - 0.06 in   Scattered Clouds
5:15 PM 46.4 °F 42.4 °F 32.0 °F 57% 29.58 in 10.0 mi WSW 8.1 mph 18.4 mph N/A   Scattered Clouds
5:35 PM 44.6 °F 38.1 °F 33.8 °F 66% 29.59 in 10.0 mi WSW 13.8 mph - N/A   Overcast
5:55 PM 44.6 °F 39.7 °F 35.6 °F 71% 29.60 in 3.0 mi WNW 9.2 mph 18.4 mph N/A Rain Light Rain
6:15 PM 41.0 °F 38.0 °F 37.4 °F 87% 29.60 in 10.0 mi NNW 4.6 mph - N/A   Scattered Clouds
6:35 PM 39.2 °F - 37.4 °F 93% 29.61 in 10.0 mi Calm Calm - N/A   Partly Cloudy
6:55 PM 41.0 °F 35.2 °F 35.6 °F 81% 29.62 in 10.0 mi NNW 9.2 mph - N/A   Mostly Cloudy
7:15 PM 41.0 °F 37.1 °F 35.6 °F 81% 29.61 in 10.0 mi NW 5.8 mph - N/A   Scattered Clouds
7:35 PM 41.0 °F 39.0 °F 33.8 °F 76% 29.62 in 10.0 mi WNW 3.5 mph - N/A   Clear
7:55 PM 41.0 °F 37.1 °F 35.6 °F 81% 29.63 in 10.0 mi North 5.8 mph - N/A   Partly Cloudy
8:15 PM 41.0 °F 38.0 °F 33.8 °F 76% 29.64 in 10.0 mi North 4.6 mph - N/A   Scattered Clouds
8:35 PM 39.2 °F 35.9 °F 33.8 °F 81% 29.65 in 10.0 mi NNE 4.6 mph - N/A   Clear
8:55 PM 39.2 °F 35.0 °F 33.8 °F 81% 29.66 in 10.0 mi SSE 5.8 mph - N/A   Clear
9:15 PM 39.2 °F 35.9 °F 33.8 °F 81% 29.66 in 10.0 mi NE 4.6 mph - N/A   Mostly Cloudy
9:35 PM 41.0 °F 37.1 °F 35.6 °F 81% 29.66 in 10.0 mi SE 5.8 mph - N/A   Mostly Cloudy
9:55 PM 41.0 °F 38.0 °F 35.6 °F 81% 29.68 in 10.0 mi ESE 4.6 mph - N/A   Overcast
10:15 PM 41.0 °F 36.4 °F 35.6 °F 81% 29.68 in 8.0 mi ENE 6.9 mph - N/A Rain Light Rain
10:35 PM 39.2 °F 33.0 °F 35.6 °F 87% 29.68 in 10.0 mi ENE 9.2 mph - N/A   Overcast
10:55 PM 41.0 °F 37.1 °F 35.6 °F 81% 29.67 in 10.0 mi NNE 5.8 mph - N/A   Overcast
11:15 PM 41.0 °F 36.4 °F 35.6 °F 81% 29.68 in 10.0 mi North 6.9 mph - N/A   Overcast
11:35 PM 41.0 °F 38.0 °F 33.8 °F 76% 29.68 in 10.0 mi East 4.6 mph - N/A   Mostly Cloudy
11:55 PM 41.0 °F 38.0 °F 33.8 °F 76% 29.69 in 10.0 mi NE 4.6 mph - N/A   Scattered Clouds